Location: Bishopstone
(51.0167°N, 1.9000°W)
Time: 02:49:57
(UTC+00:00)

Resurs 01 Rocket - Pass Details

Date: 16 September 2019
Orbit: 635 x 644 km, 98.0° (Epoch: 19 October)

Event Time Altitude Azimuth Distance (km) Brightness Sun altitude
Exits shadow 19:55:57 24° 136° (SE) 1,330 2.7 -15.3°
Maximum altitude 19:58:24 53° 70° (ENE) 794 1.8 -15.7°
Drops below altitude 10° 20:02:45 10° 354° (N) 2,050 4.6 -16.3°
Sets 20:05:00 0° 350° (N) 2,966 5.6 -16.6°
